Change the Weather History Date:

Monday, March 31, 2014

  Actual Average Record
Temperature  
Mean Temperature 32 °F -  
Max Temperature 37 °F 36 °F 48 °F (1999)
Min Temperature 28 °F 20 °F 6 °F (1997)
Degree Days  
Heating Degree Days 32    
Moisture  
Dew Point 25 °F    
Average Humidity 73    
Maximum Humidity 93    
Minimum Humidity 56    
Precipitation  
Precipitation 0.11 in - - ()
Sea Level Pressure  
Sea Level Pressure 29.80 in    
Wind  
Wind Speed 11 mph (NE)    
Max Wind Speed 23 mph    
Max Gust Speed 34 mph    
Visibility 8 miles    
Events Snow , Thunderstorm    
Averages and records for this station are not official NWS values.
T = Trace of Precipitation, MM = Missing Value Source: NWS Daily Summary

Daily Weather History Graph

Daily Weather History Graph

Search for Another Location

Airport or City:

Trip Planner

Search our weather history database for the weather conditions in past years. The results will help you decide how hot, cold, wet, or windy it might be!

Date:

Astronomy

Mar. 31, 2014 Rise Set
Actual Time 6:41 AM CDT 7:30 PM CDT
Civil Twilight 6:10 AM CDT 8:01 PM CDT
Nautical Twilight 5:33 AM CDT 8:39 PM CDT
Astronomical Twilight 4:54 AM CDT 9:18 PM CDT
Moon 7:01 AM CDT (3/31) 8:56 PM CDT (3/31)
Length of Visible Light 13h 50m
Length of Day
12h 48m
New Moon, 1% of the Moon is Illuminated
Mar 31
New Moon
Apr 7
First Quarter
Apr 15
Full
Apr 22
Last Quarter
Apr 29
New

Hourly Weather History & Observations

Time (CDT) Temp. Windchill Dew Point Humidity Pressure Visibility Wind Dir Wind Speed Gust Speed Precip Events Conditions
12:14 AM 33.8 °F 27.0 °F 24.8 °F 70% 29.96 in 10.0 mi ENE 8.1 mph - N/A   Clear
12:33 AM 32.0 °F 26.4 °F 24.8 °F 75% 29.96 in 10.0 mi NE 5.8 mph - N/A   Clear
12:54 AM 32.0 °F 25.6 °F 24.8 °F 75% 29.96 in 10.0 mi NE 6.9 mph - N/A   Scattered Clouds
1:14 AM 32.0 °F 25.6 °F 24.8 °F 75% 29.95 in 10.0 mi NNE 6.9 mph - N/A   Clear
1:33 AM 33.8 °F 27.7 °F 24.8 °F 70% 29.96 in 10.0 mi NNE 6.9 mph - N/A   Clear
1:53 AM 33.8 °F 30.8 °F 24.8 °F 70% 29.96 in 10.0 mi ENE 3.5 mph - N/A   Clear
2:14 AM 33.8 °F 28.6 °F 24.8 °F 70% 29.96 in 10.0 mi NE 5.8 mph - N/A   Clear
2:34 AM 33.8 °F 26.4 °F 24.8 °F 70% 29.95 in 10.0 mi NE 9.2 mph - N/A   Clear
2:53 AM 32.0 °F 25.6 °F 24.8 °F 75% 29.95 in 10.0 mi NNE 6.9 mph - N/A   Scattered Clouds
3:14 AM 33.8 °F 28.6 °F 24.8 °F 70% 29.95 in 10.0 mi NE 5.8 mph - N/A   Mostly Cloudy
3:33 AM 33.8 °F 27.0 °F 24.8 °F 70% 29.95 in 10.0 mi NNE 8.1 mph - N/A   Mostly Cloudy
3:54 AM 33.8 °F 26.4 °F 24.8 °F 70% 29.94 in 10.0 mi NNE 9.2 mph - N/A   Overcast
4:13 AM 33.8 °F 26.4 °F 24.8 °F 70% 29.94 in 10.0 mi NNE 9.2 mph - N/A   Overcast
4:33 AM 33.8 °F 25.3 °F 24.8 °F 70% 29.94 in 10.0 mi NNE 11.5 mph 16.1 mph N/A   Overcast
4:54 AM 33.8 °F 25.3 °F 24.8 °F 70% 29.93 in 10.0 mi NNE 11.5 mph 17.3 mph N/A   Scattered Clouds
5:13 AM 33.8 °F 24.8 °F 24.8 °F 70% 29.93 in 10.0 mi NNE 12.7 mph 18.4 mph N/A   Mostly Cloudy
5:33 AM 33.8 °F 24.8 °F 24.8 °F 70% 29.93 in 10.0 mi NNE 12.7 mph 17.3 mph N/A   Mostly Cloudy
5:54 AM 33.8 °F 24.3 °F 23.0 °F 65% 29.93 in 10.0 mi NNE 13.8 mph - N/A   Mostly Cloudy
6:13 AM 33.8 °F 23.9 °F 23.0 °F 65% 29.91 in 10.0 mi NNE 15.0 mph 21.9 mph N/A   Mostly Cloudy
6:34 AM 32.0 °F 22.5 °F 23.0 °F 69% 29.92 in 10.0 mi NNE 12.7 mph 20.7 mph N/A   Scattered Clouds
6:53 AM 33.8 °F 24.3 °F 23.0 °F 65% 29.91 in 10.0 mi NNE 13.8 mph 20.7 mph N/A   Scattered Clouds
7:14 AM 32.0 °F 21.2 °F 23.0 °F 69% 29.91 in 10.0 mi NNE 16.1 mph 21.9 mph N/A   Scattered Clouds
7:33 AM 32.0 °F 20.8 °F 23.0 °F 69% 29.90 in 10.0 mi NNE 17.3 mph 21.9 mph N/A   Scattered Clouds
7:53 AM 33.8 °F 23.5 °F 24.8 °F 70% 29.90 in 10.0 mi NNE 16.1 mph 25.3 mph N/A   Mostly Cloudy
8:13 AM 33.8 °F 23.5 °F 24.8 °F 70% 29.91 in 10.0 mi NE 16.1 mph 25.3 mph N/A   Overcast
8:34 AM 33.8 °F 23.5 °F 24.8 °F 70% 29.90 in 10.0 mi NE 16.1 mph 21.9 mph N/A   Overcast
8:54 AM 33.8 °F 21.6 °F 24.8 °F 70% 29.89 in 10.0 mi NE 23.0 mph 27.6 mph N/A   Mostly Cloudy
9:14 AM 33.8 °F 23.5 °F 24.8 °F 70% 29.88 in 10.0 mi NE 16.1 mph 26.5 mph N/A   Scattered Clouds
9:33 AM 35.6 °F 26.6 °F 24.8 °F 65% 29.88 in 10.0 mi NE 13.8 mph 23.0 mph N/A   Scattered Clouds
9:54 AM 37.4 °F 26.4 °F 24.8 °F 60% 29.88 in 10.0 mi NE 23.0 mph 29.9 mph N/A   Clear
10:13 AM 37.4 °F 26.4 °F 24.8 °F 60% 29.88 in 10.0 mi NE 23.0 mph 32.2 mph N/A   Scattered Clouds
10:33 AM 37.4 °F 27.2 °F 24.8 °F 60% 29.89 in 10.0 mi ENE 19.6 mph 29.9 mph N/A   Clear
10:54 AM 37.4 °F 27.8 °F 24.8 °F 60% 29.88 in 10.0 mi ENE 17.3 mph 32.2 mph N/A   Clear
11:13 AM 37.4 °F 26.6 °F 24.8 °F 60% 29.86 in 10.0 mi ENE 21.9 mph 33.4 mph N/A   Clear
11:33 AM 37.4 °F 26.6 °F 24.8 °F 60% 29.85 in 10.0 mi NE 21.9 mph 34.5 mph N/A   Clear
11:54 AM 37.4 °F 27.5 °F 23.0 °F 56% 29.84 in 10.0 mi ENE 18.4 mph 29.9 mph N/A   Clear
12:14 PM 35.6 °F 25.2 °F 23.0 °F 60% 29.83 in 10.0 mi NE 18.4 mph 27.6 mph N/A   Scattered Clouds
12:33 PM 35.6 °F 24.8 °F 23.0 °F 60% 29.82 in 10.0 mi NE 19.6 mph 31.1 mph N/A   Clear
12:53 PM 35.6 °F 25.2 °F 21.2 °F 56% 29.82 in 10.0 mi NE 18.4 mph 28.8 mph N/A   Clear
1:14 PM 35.6 °F 24.2 °F 23.0 °F 60% 29.80 in 10.0 mi NE 21.9 mph 29.9 mph N/A   Clear
1:34 PM 35.6 °F 24.2 °F 23.0 °F 60% 29.79 in 10.0 mi NE 21.9 mph 31.1 mph N/A   Clear
1:53 PM 35.6 °F 25.5 °F 23.0 °F 60% 29.78 in 10.0 mi NE 17.3 mph 24.2 mph N/A   Clear
2:14 PM 35.6 °F 24.8 °F 23.0 °F 60% 29.78 in 10.0 mi ENE 19.6 mph 29.9 mph N/A   Clear
2:34 PM 33.8 °F 22.8 °F 23.0 °F 65% 29.77 in 10.0 mi ENE 18.4 mph 26.5 mph N/A   Light Drizzle
2:53 PM 33.8 °F 23.2 °F 23.0 °F 65% 29.79 in 7.0 mi ENE 17.3 mph 28.8 mph N/A Snow Light Snow
3:14 PM 32.0 °F 19.8 °F 23.0 °F 69% 29.76 in 3.0 mi ENE 20.7 mph 32.2 mph N/A Snow Light Snow
3:33 PM 30.2 °F 19.8 °F 24.8 °F 80% 29.74 in 3.0 mi NE 13.8 mph 27.6 mph 0.01 in   Overcast
3:54 PM 30.2 °F 18.5 °F 24.8 °F 80% 29.72 in 3.0 mi NE 17.3 mph 24.2 mph 0.05 in   Overcast
4:13 PM 30.2 °F 19.8 °F 26.6 °F 86% 29.71 in 3.0 mi NE 13.8 mph - 0.02 in   Overcast
4:34 PM 30.2 °F 20.8 °F 26.6 °F 86% 29.71 in 2.5 mi NE 11.5 mph 16.1 mph 0.05 in   Overcast
4:53 PM 30.2 °F 21.3 °F 26.6 °F 86% 29.68 in 2.0 mi NE 10.4 mph - 0.06 in Snow Light Snow
5:13 PM 30.2 °F 20.8 °F 26.6 °F 86% 29.66 in 5.0 mi NE 11.5 mph 16.1 mph N/A   Overcast
5:34 PM 30.2 °F 21.9 °F 24.8 °F 80% 29.67 in 3.0 mi NE 9.2 mph - N/A   Overcast
5:53 PM 28.4 °F 22.2 °F 24.8 °F 86% 29.65 in 7.0 mi NNE 5.8 mph - N/A   Overcast
6:14 PM 28.4 °F 22.2 °F 24.8 °F 86% 29.65 in 10.0 mi NE 5.8 mph - N/A   Overcast
6:33 PM 28.4 °F 21.2 °F 24.8 °F 86% 29.65 in 10.0 mi NE 6.9 mph - N/A Thunderstorm Overcast
6:54 PM 28.4 °F 22.2 °F 24.8 °F 86% 29.65 in 10.0 mi NE 5.8 mph - N/A   Overcast
7:13 PM 28.4 °F 22.2 °F 24.8 °F 86% 29.63 in 2.5 mi NNE 5.8 mph - N/A Snow Light Snow
7:34 PM 28.4 °F 21.2 °F 24.8 °F 86% 29.62 in 7.0 mi NNE 6.9 mph - N/A Thunderstorm Overcast
7:54 PM 28.4 °F 21.2 °F 26.6 °F 93% 29.62 in 7.0 mi NNE 6.9 mph - N/A   Overcast
8:13 PM 30.2 °F 24.3 °F 26.6 °F 86% 29.61 in 5.0 mi NNE 5.8 mph - N/A   Overcast
8:34 PM 30.2 °F 24.3 °F 26.6 °F 86% 29.60 in 4.0 mi NE 5.8 mph - N/A   Overcast
8:54 PM 30.2 °F 23.4 °F 26.6 °F 86% 29.60 in 4.0 mi NE 6.9 mph - N/A Thunderstorm Overcast
9:13 PM 30.2 °F 24.3 °F 26.6 °F 86% 29.60 in 7.0 mi NE 5.8 mph - N/A   Overcast
9:34 PM 30.2 °F 24.3 °F 26.6 °F 86% 29.60 in 5.0 mi NE 5.8 mph - N/A   Overcast
9:54 PM 30.2 °F 24.3 °F 26.6 °F 86% 29.59 in 5.0 mi NE 5.8 mph - N/A Thunderstorm Overcast
10:13 PM 30.2 °F 24.3 °F 26.6 °F 86% 29.58 in 5.0 mi NE 5.8 mph - N/A   Overcast
10:34 PM 30.2 °F 25.4 °F 26.6 °F 86% 29.58 in 7.0 mi NE 4.6 mph - N/A   Overcast
10:53 PM 30.2 °F 24.3 °F 26.6 °F 86% 29.56 in 5.0 mi NE 5.8 mph - N/A   Overcast
11:14 PM 30.2 °F 25.4 °F 26.6 °F 86% 29.56 in 7.0 mi NNE 4.6 mph - N/A   Overcast
11:33 PM 30.2 °F 25.4 °F 26.6 °F 86% 29.54 in 7.0 mi NNE 4.6 mph - N/A   Overcast
11:53 PM 30.2 °F 24.3 °F 26.6 °F 86% 29.53 in 5.0 mi NNE 5.8 mph - N/A   Overcast